WC1Z Weather Reports


time (UTC)temp
C
wind
direction
speed
KPH
gust
KPH
rain 1hr
cm
rain 24hr
cm
rain mn
cm
humidity
%
barometer
mb
20260505063701 20 157 6.4 9.7 0.00 0.00 0.00 83 1010.3
20260505063201 20 165 9.7 11.3 0.00 0.00 0.00 83 1010.5
20260505062701 20 169 9.7 11.3 0.00 0.00 0.00 82 1010.5
20260505062200 20 157 3.2 6.4 0.00 0.00 0.00 82 1010.4
20260505061700 20 165 11.3 16.1 0.00 0.00 0.00 82 1010.5
20260505061201 20 166 6.4 9.7 0.00 0.00 0.00 82 1010.6
20260505060700 20 161 8.0 11.3 0.00 0.00 0.00 81 1010.6
20260505060200 20 171 8.0 11.3 0.00 0.00 0.00 81 1010.7
20260505055700 20 165 6.4 11.3 0.00 0.00 0.00 81 1010.6
20260505055201 20 174 4.8 9.7 0.00 0.00 0.00 81 1010.6
20260505054700 20 166 11.3 14.5 0.00 0.00 0.00 81 1010.7
20260505054200 20 164 9.7 12.9 0.00 0.00 0.00 81 1010.7
20260505053700 20 167 8.0 14.5 0.00 0.00 0.00 80 1010.6
20260505053200 20 180 11.3 16.1 0.00 0.00 0.00 80 1010.7
20260505052701 20 169 4.8 9.7 0.00 0.00 0.00 80 1010.8
20260505052201 20 174 8.0 12.9 0.00 0.00 0.00 80 1010.8
20260505051710 20 189 8.0 14.5 0.00 0.00 0.00 79 1010.9
20260505051200 20 173 3.2 11.3 0.00 0.00 0.00 79 1010.9
20260505050701 20 168 11.3 16.1 0.00 0.00 0.00 79 1010.8
20260505050200 20 164 3.2 6.4 0.00 0.00 0.00 79 1011.0
20260505041700 20 159 4.8 6.4 0.00 0.00 0.00 78 1011.1
20260505041205 20 172 4.8 6.4 0.00 0.00 0.00 78 1011.2
20260505040700 20 206 3.2 4.8 0.00 0.00 0.00 77 1011.1
20260505040200 20 207 4.8 8.0 0.00 0.00 0.00 77 1011.0
20260505035700 20 167 6.4 8.0 0.00 0.00 0.00 77 1011.0
20260505035201 20 147 3.2 8.0 0.00 0.00 0.00 77 1011.0
20260505034700 20 155 8.0 14.5 0.00 0.00 0.00 76 1011.1
20260505034201 20 166 8.0 11.3 0.00 0.00 0.00 76 1011.1
20260505033701 20 173 4.8 8.0 0.00 0.00 0.00 76 1011.1
20260505033200 20 163 11.3 16.1 0.00 0.00 0.00 76 1011.1
20260505032701 20 161 9.7 12.9 0.00 0.00 0.00 75 1011.1
20260505032200 20 149 6.4 9.7 0.00 0.00 0.00 75 1011.1
20260505031700 21 150 4.8 6.4 0.00 0.00 0.00 74 1011.1
20260505031200 21 163 9.7 11.3 0.00 0.00 0.00 74 1011.1
20260505030700 21 158 8.0 11.3 0.00 0.00 0.00 73 1011.2
20260505030201 21 170 9.7 14.5 0.00 0.00 0.00 73 1011.2
20260505025700 21 155 6.4 9.7 0.00 0.00 0.00 72 1011.2
20260505025201 21 176 1.6 6.4 0.00 0.00 0.00 72 1011.2
20260505024700 21 230 3.2 8.0 0.00 0.00 0.00 72 1011.1
20260505024200 21 191 3.2 6.4 0.00 0.00 0.00 71 1011.2
20260505023700 21 166 4.8 20.9 0.00 0.00 0.00 71 1011.0
20260505023201 21 169 3.2 6.4 0.00 0.00 0.00 71 1011.0
20260505022702 21 168 6.4 8.0 0.00 0.00 0.00 70 1010.9
20260505022200 22 194 6.4 8.0 0.00 0.00 0.00 70 1010.8
20260505021701 22 184 4.8 8.0 0.00 0.00 0.00 70 1010.7
20260505021200 22 163 4.8 8.0 0.00 0.00 0.00 69 1010.6
20260505020702 22 171 6.4 9.7 0.00 0.00 0.00 69 1010.5
20260505020201 22 191 1.6 4.8 0.00 0.00 0.00 68 1010.6
20260505015700 22 166 8.0 14.5 0.00 0.00 0.00 68 1010.4
20260505015200 22 168 8.0 14.5 0.00 0.00 0.00 68 1010.4
20260505014700 22 166 9.7 12.9 0.00 0.00 0.00 67 1010.3
20260505014200 22 172 6.4 12.9 0.00 0.00 0.00 67 1010.3
20260505013700 22 207 4.8 9.7 0.00 0.00 0.00 67 1010.3
20260505013200 22 160 8.0 11.3 0.00 0.00 0.00 67 1010.3
20260505012700 22 171 6.4 11.3 0.00 0.00 0.00 66 1010.2
20260505012200 22 167 4.8 9.7 0.00 0.00 0.00 66 1010.1
20260505011700 23 169 9.7 14.5 0.00 0.00 0.00 66 1010.3
20260505011201 23 160 4.8 8.0 0.00 0.00 0.00 66 1010.2
20260505010700 23 166 8.0 11.3 0.00 0.00 0.00 66 1010.4
20260505010201 23 175 4.8 9.7 0.00 0.00 0.00 65 1010.4
20260505005700 23 163 3.2 6.4 0.00 0.00 0.00 65 1010.4
20260505005200 23 157 4.8 6.4 0.00 0.00 0.00 64 1010.3
20260505004700 23 177 4.8 11.3 0.00 0.00 0.00 64 1010.4
20260505004200 23 155 6.4 9.7 0.00 0.00 0.00 64 1010.3
20260505003701 23 158 8.0 11.3 0.00 0.00 0.00 64 1010.4
20260505003200 23 153 9.7 14.5 0.00 0.00 0.00 63 1010.4
20260505002700 23 170 6.4 11.3 0.00 0.00 0.00 63 1010.5
20260505002200 23 161 4.8 8.0 0.00 0.00 0.00 63 1010.4
20260505001701 24 150 8.0 12.9 0.00 0.00 0.00 62 1010.5
20260505001200 24 201 4.8 8.0 0.00 0.00 0.00 62 1010.6
20260505000700 24 163 4.8 6.4 0.00 0.00 0.00 62 1010.7
20260505000204 25 168 6.4 9.7 0.00 0.00 0.00 61 1010.7
20260504235701 25 177 6.4 9.7 0.00 0.00 0.00 60 1010.8
20260504235200 25 184 3.2 6.4 0.00 0.00 0.00 60 1010.8
20260504234704 25 154 6.4 11.3 0.00 0.00 0.00 59 1010.7
20260504234202 25 177 3.2 6.4 0.00 0.00 0.00 60 1010.7
20260504233700 25 172 3.2 6.4 0.00 0.00 0.00 60 1010.7
20260504233200 25 190 4.8 6.4 0.00 0.00 0.00 58 1010.8
20260504232700 25 173 8.0 9.7 0.00 0.00 0.00 58 1010.9
20260504232201 25 182 6.4 9.7 0.00 0.00 0.00 58 1011.0
20260504231701 25 213 3.2 6.4 0.00 0.00 0.00 59 1011.0
20260504231200 25 175 3.2 9.7 0.00 0.00 0.00 58 1011.0
20260504230700 25 177 9.7 14.5 0.00 0.00 0.00 57 1011.0
20260504230200 25 182 11.3 16.1 0.00 0.00 0.00 56 1011.2
20260504225700 25 195 6.4 11.3 0.00 0.00 0.00 57 1011.3
20260504225200 25 173 12.9 17.7 0.00 0.00 0.00 57 1011.4
20260504224700 25 177 9.7 16.1 0.00 0.00 0.00 56 1011.4
20260504224200 25 138 8.0 16.1 0.00 0.00 0.00 57 1011.3
20260504223701 25 188 9.7 16.1 0.00 0.00 0.00 57 1011.3
20260504223201 25 179 3.2 9.7 0.00 0.00 0.00 57 1011.5
20260504222700 25 176 6.4 11.3 0.00 0.00 0.00 57 1011.6
20260504222201 25 188 4.8 9.7 0.00 0.00 0.00 57 1011.7
20260504221700 25 181 6.4 14.5 0.00 0.00 0.00 57 1011.6
20260504221200 25 179 12.9 20.9 0.00 0.00 0.00 56 1011.6
20260504220701 25 175 6.4 11.3 0.00 0.00 0.00 56 1011.8
20260504220200 25 158 9.7 14.5 0.00 0.00 0.00 56 1011.9
20260504215700 25 172 14.5 19.3 0.00 0.00 0.00 53 1011.9
20260504215202 25 166 11.3 17.7 0.00 0.00 0.00 54 1012.1
20260504214700 25 179 9.7 14.5 0.00 0.00 0.00 54 1012.1
20260504214200 25 234 8.0 12.9 0.00 0.00 0.00 54 1012.1
20260504213700 25 191 8.0 14.5 0.00 0.00 0.00 53 1012.2
20260504213201 25 208 4.8 12.9 0.00 0.00 0.00 54 1012.3
20260504212700 25 214 8.0 12.9 0.00 0.00 0.00 54 1012.4
20260504212204 25 234 6.4 8.0 0.00 0.00 0.00 55 1012.5
20260504211701 25 179 9.7 16.1 0.00 0.00 0.00 53 1012.5
20260504211200 25 179 6.4 9.7 0.00 0.00 0.00 54 1012.6
20260504210700 25 217 4.8 9.7 0.00 0.00 0.00 54 1012.7
20260504210201 25 202 4.8 9.7 0.00 0.00 0.00 54 1012.8
20260504205700 26 231 9.7 14.5 0.00 0.00 0.00 54 1012.9
20260504205203 26 188 9.7 19.3 0.00 0.00 0.00 53 1012.8
20260504204700 25 199 8.0 17.7 0.00 0.00 0.00 53 1012.9
20260504204200 25 216 6.4 8.0 0.00 0.00 0.00 53 1012.9
20260504203700 25 178 9.7 14.5 0.00 0.00 0.00 52 1013.0
20260504203200 25 200 6.4 16.1 0.00 0.00 0.00 51 1013.2
20260504202700 25 169 12.9 20.9 0.00 0.00 0.00 51 1013.2
20260504202200 25 180 11.3 20.9 0.00 0.00 0.00 51 1013.3
20260504201700 25 233 8.0 14.5 0.00 0.00 0.00 54 1013.4
20260504201200 25 190 6.4 11.3 0.00 0.00 0.00 53 1013.6
20260504200700 25 157 8.0 14.5 0.00 0.00 0.00 52 1013.5
20260504200202 25 173 11.3 19.3 0.00 0.00 0.00 52 1013.6
20260504195700 25 220 11.3 19.3 0.00 0.00 0.00 52 1013.7
20260504195200 25 232 11.3 17.7 0.00 0.00 0.00 51 1013.8
20260504194701 25 166 6.4 14.5 0.00 0.00 0.00 52 1013.9
20260504194201 25 228 12.9 17.7 0.00 0.00 0.00 51 1013.9
20260504193701 25 226 6.4 11.3 0.00 0.00 0.00 52 1014.1
20260504193201 25 214 8.0 14.5 0.00 0.00 0.00 51 1014.2
20260504192700 25 212 6.4 14.5 0.00 0.00 0.00 51 1014.2
20260504192200 24 226 8.0 14.5 0.00 0.00 0.00 50 1014.2
20260504191700 25 175 9.7 14.5 0.00 0.00 0.00 50 1014.4
20260504191201 24 164 9.7 12.9 0.00 0.00 0.00 51 1014.5
20260504190700 24 177 8.0 20.9 0.00 0.00 0.00 51 1014.4
20260504190200 24 228 8.0 12.9 0.00 0.00 0.00 48 1014.6
20260504185700 24 238 8.0 11.3 0.00 0.00 0.00 49 1014.8
20260504185200 24 196 9.7 14.5 0.00 0.00 0.00 51 1014.7
20260504184701 24 213 8.0 12.9 0.00 0.00 0.00 51 1014.9
20260504184207 24 179 4.8 11.3 0.00 0.00 0.00 54 1014.9
20260504183701 23 175 6.4 9.7 0.00 0.00 0.00 53 1014.9
20260504183200 23 178 9.7 20.9 0.00 0.00 0.00 52 1014.9
20260504182700 23 253 11.3 19.3 0.00 0.00 0.00 52 1015.0
20260504182200 23 146 6.4 11.3 0.00 0.00 0.00 52 1015.1
20260504181700 23 173 4.8 8.0 0.00 0.00 0.00 52 1015.2
20260504181201 23 198 3.2 11.3 0.00 0.00 0.00 53 1015.4
20260504180703 23 188 8.0 12.9 0.00 0.00 0.00 54 1015.5
20260504180201 23 185 6.4 16.1 0.00 0.00 0.00 52 1015.6
20260504175700 23 173 3.2 8.0 0.00 0.00 0.00 53 1015.6
20260504175201 23 182 11.3 22.5 0.00 0.00 0.00 52 1015.6
20260504174702 23 157 11.3 14.5 0.00 0.00 0.00 54 1015.7
20260504174201 23 193 8.0 14.5 0.00 0.00 0.00 58 1015.7
20260504173700 23 212 4.8 9.7 0.00 0.00 0.00 55 1015.8
20260504173201 23 153 12.9 19.3 0.00 0.00 0.00 53 1015.8
20260504172701 23 159 12.9 17.7 0.00 0.00 0.00 52 1015.8
20260504172201 23 142 14.5 20.9 0.00 0.00 0.00 52 1015.9
20260504171700 22 145 4.8 9.7 0.00 0.00 0.00 57 1016.1
20260504171200 23 164 16.1 24.1 0.00 0.00 0.00 54 1016.1
20260504170702 22 161 8.0 12.9 0.00 0.00 0.00 55 1016.1
20260504170200 22 237 9.7 17.7 0.00 0.00 0.00 55 1016.3
20260504160200 21 188 6.4 14.5 0.00 0.00 0.00 56 1016.7
20260504150700 20 215 9.7 14.5 0.00 0.00 0.00 61 1016.8
20260504150201 20 186 9.7 17.7 0.00 0.00 0.00 61 1017.0
20260504141201 18 222 4.8 9.7 0.00 0.00 0.00 68 1017.1
20260504140700 18 206 6.4 9.7 0.00 0.00 0.00 70 1017.0
20260504140202 18 209 6.4 12.9 0.00 0.00 0.00 69 1017.0
20260504130700 16 168 0.0 3.2 0.00 0.00 0.00 78 1017.0
20260504130201 16 240 1.6 4.8 0.00 0.00 0.00 79 1016.9
20260504120201 11 0 0.0 0.0 0.00 0.00 0.00 93 1016.2
20260504110701 11 0 0.0 0.0 0.00 0.00 0.00 91 1016.1
20260504110200 11 0 0.0 0.0 0.00 0.00 0.00 91 1016.1
20260504100200 12 0 0.0 0.0 0.00 0.00 0.00 89 1016.4
20260504081701 12 0 0.0 0.0 0.00 0.00 0.00 87 1016.5
20260504081200 13 0 0.0 0.0 0.00 0.00 0.00 87 1016.6
20260504080700 13 0 0.0 0.0 0.00 0.00 0.00 87 1016.6
20260504080200 13 0 0.0 0.0 0.00 0.00 0.00 86 1016.6
20260504070201 14 0 0.0 0.0 0.00 0.00 0.00 83 1017.3